Miscellaneous Local Product
Issued by NWS North Platte, NE

Home | Current Version | Previous Version | Text Only | Print | Product List | Glossary On
Versions: 1 2 3 4 5 6 7 8 9 10 11 12 13 14 15 16 17 18 19 20 21 22 23 24 25 26 27 28 29 30 31 32 33 34 35 36 37 38 39 40 41 42 43 44 45 46 47 48 49 50
000
AXUS43 KLBF 030310
MISLBF


WESTERN AND NORTH CENTRAL NEBRASKA HOURLY WEATHER ROUNDUP
NATIONAL WEATHER SERVICE NORTH PLATTE NE
900 PM CST WED DEC 02 2020

NOTE: "FAIR" INDICATES FEW OR NO CLOUDS BELOW 12,000 FEET WITH NO
SIGNIFICANT WEATHER AND/OR OBSTRUCTIONS TO VISIBILITY.

NOTE: STATIONS NOT REPORTING SKY/WEATHER AND PRESSURE ARE
PROVIDED BY RAWS AND APRS NETWORKS AND ARE NOT UNDER NATIONAL
WEATHER SERVICE QUALITY CONTROL.

...OBSERVATIONS IN AND NEAR THE EASTERN PANHANDLE OF NEBRASKA...

CITY           SKY/WX    TMP DP  RH WIND       PRES   REMARKS
PINE RIDGE     CLEAR     15  10  80 CALM      30.41S
GORDON         FAIR      16  13  87 W7        30.39S WCI   6
CHADRON        CLEAR     16   8  71 SW9       30.42F WCI   4
ALLIANCE       CLEAR      8   5  87 W9        30.39F WCI  -5
SIDNEY         CLEAR     13   9  84 W7        30.39S WCI   3
CRESCENT LAKE    N/A     21  18  86 NW6         N/A  WCI  13
$$

...OBSERVATIONS IN NORTHERN NEBRASKA AND FAR SOUTHERN SOUTH DAKOTA...

CITY           SKY/WX    TMP DP  RH WIND       PRES   REMARKS
WINNER         FAIR      25  21  85 SW7       30.41S WCI  17
VALENTINE      CLEAR     23  19  85 W7        30.41R WCI  15
AINSWORTH      CLEAR     25  24  93 CALM      30.40R
O`NEILL        CLOUDY    32  28  85 NW3       30.41S
THEDFORD       CLOUDY    30  27  89 N5        30.40F
BROKEN BOW     CLOUDY    33  27  78 N10       30.39S
ORD            CLOUDY    33  26  75 N12       30.39S
ALBION         CLOUDY    32  26  78 N9        30.40S
EWING            N/A     31  26  81 N5          N/A
CHAMBERS         N/A     31  27  83 CALM        N/A
BUTTE            N/A     28  25  89 CALM        N/A
VALENTINE NWR    N/A     25  23  91 CALM        N/A
HALSEY           N/A     30  26  86 NW6G13      N/A
$$

...OBSERVATIONS IN SOUTHWEST NEBRASKA AND FAR NORTHEAST COLORADO...

CITY           SKY/WX    TMP DP  RH WIND       PRES   REMARKS
WRAY           CLOUDY    30  23  74 N6        30.43S
HOLYOKE        FAIR      27  21  80 N6        30.42S WCI  20
IMPERIAL       CLOUDY    29  24  82 N9        30.42R
OGALLALA       CLOUDY    31  24  74 N7        30.41F
NORTH PLATTE   CLOUDY    32  25  75 N9        30.41S
MCCOOK         CLOUDY    32  24  72 N7        30.41S
LEXINGTON      CLOUDY    33  26  76 N10       30.40F
CALLAWAY         N/A     32  28  85 NE12        N/A
STAPLETON        N/A     29  26  89 CALM        N/A
$$

...OBSERVATIONS IN CENTRAL LINCOLN COUNTY AREA...

CITY           SKY/WX    TMP DP  RH WIND       PRES   REMARKS
N.P. AIRPORT   CLOUDY    32  25  75 N9        30.41S
N.P. HILLCREST   N/A     30  26  86 NW7         N/A
N.P. DOWNTOWN    N/A     30  26  83 N3          N/A
$$

...OBSERVATIONS ACROSS THE ROCKIES AND WESTERN HIGH PLAINS...

CITY           SKY/WX    TMP DP  RH WIND       PRES   REMARKS
SCOTTSBLUFF    CLEAR     21   9  59 NW5       30.42S WCI  15
KIMBALL        CLEAR     20  10  65 NW9       30.38F WCI  10
CHEYENNE       CLEAR     20   9  62 NW13      30.37F WCI   7
DENVER         PTCLDY    22  11  62 W5        30.41R WCI  16
STEAMBOAT      FAIR      13   4  65 E8        30.44R WCI   2
COPPER MTN     CLEAR      5   0  78 MISG      30.26R
LEADVILLE      PTCLDY     7  -5  57 N13G21    30.29S WCI  -9
ASPEN          PTCLDY    14   3  61 SW6       30.38R WCI   5
GUNNISON       PTCLDY    15   7  70 CALM      30.34R
TELLURIDE      PTCLDY    16   7  67 CALM      30.34R
LARAMIE        CLEAR      1  32 100 CALM      30.40S
CASPER         CLEAR     19  10  68 SW14      30.41F WCI   6
SHERIDAN       CLEAR     15   8  73 CALM      30.39F
JACKSON        CLEAR      1  -3  83 NE6       30.54R WCI -10
YELLOWSTONE      N/A      1  -2  87 NW3       30.49F
$$

...OBSERVATIONS ACROSS THE NORTHERN PLAINS...

CITY           SKY/WX    TMP DP  RH WIND       PRES   REMARKS
RAPID CITY     CLEAR     27  13  55 W3        30.40S
PIERRE         PTCLDY    26  20  77 W8        30.39F WCI  18
SIOUX FALLS    CLOUDY    32  26  78 NW6       30.38S
ABERDEEN       PTCLDY    22  16  78 SW8       30.35F WCI  12
WILLISTON      FAIR      23  12  63 W7        30.33F WCI  15
DICKINSON      PTCLDY    28  13  53 W13       30.31F WCI  17
BISMARCK       PTCLDY    24  18  77 W5        30.35S WCI  18
FARGO          CLEAR     25  20  81 W9        30.27F WCI  15
GRAND FORKS    PTCLDY    28  18  66 W8        30.22F WCI  20
$$

...OBSERVATIONS ACROSS THE CENTRAL AND SOUTHERN PLAINS...

CITY           SKY/WX    TMP DP  RH WIND       PRES   REMARKS
GRAND ISLAND   CLOUDY    31  24  75 N10       30.40S
LINCOLN        CLOUDY    31  23  72 N10       30.39S
OMAHA          PTCLDY    30  24  78 NW12      30.38R
DES MOINES     PTCLDY    28  17  63 W5        30.34S
KANSAS CITY    MOCLDY    37  23  56 NE7       30.30R
WICHITA        LGT RAIN  39  36  89 N13       30.22R
DODGE CITY     CLOUDY    34  28  79 N25G36    30.28R HAZE
OKLAHOMA CITY  LGT RAIN  36  35  96 NW8       30.12R FOG
DALLAS         PTCLDY    45  31  58 NW17G25   30.20R
AMARILLO       LGT SNOW  29  25  85 NW18G32   30.25S FOG     WCI  16
$$



USA.gov is the U.S. government's official web portal to all federal, state and local government web resources and services.